Year,Month,Day,Hour,Minute,Value (Times are PST for insolation in W/m^2)
2008,01,24,00,00,0.00
2008,01,24,00,01,0.00
2008,01,24,00,02,0.00
2008,01,24,00,03,0.00
2008,01,24,00,04,0.00
2008,01,24,00,05,0.00
2008,01,24,00,06,0.00
2008,01,24,00,07,0.00
2008,01,24,00,08,0.00
2008,01,24,00,09,0.00
2008,01,24,00,10,0.00
2008,01,24,00,11,0.00
2008,01,24,00,12,0.00
2008,01,24,01,02,0.00
2008,01,24,01,03,0.00
2008,01,24,01,04,0.00
2008,01,24,01,05,0.00
2008,01,24,01,06,0.00
2008,01,24,01,07,0.00
2008,01,24,01,08,0.00
2008,01,24,01,09,0.00
2008,01,24,01,10,0.00
2008,01,24,01,11,0.00
2008,01,24,01,12,0.00
2008,01,24,01,13,0.00
2008,01,24,01,14,0.00
2008,01,24,01,15,0.00
2008,01,24,01,16,0.00
2008,01,24,01,17,0.00
2008,01,24,01,18,0.00
2008,01,24,01,19,0.00
2008,01,24,01,20,0.00
2008,01,24,01,21,0.00
2008,01,24,01,22,0.00
2008,01,24,01,23,0.00
2008,01,24,01,24,0.00
2008,01,24,01,25,0.00
2008,01,24,01,26,0.00
2008,01,24,01,27,0.00
2008,01,24,01,28,0.00
2008,01,24,01,29,0.00
2008,01,24,01,30,0.00
2008,01,24,01,31,0.00
2008,01,24,01,32,0.00
2008,01,24,01,33,0.00
2008,01,24,01,34,0.00
2008,01,24,01,35,0.00
2008,01,24,01,36,0.00
2008,01,24,01,37,0.00
2008,01,24,01,38,0.00
2008,01,24,01,39,0.00
2008,01,24,01,40,0.00
2008,01,24,01,41,0.00
2008,01,24,01,42,0.00
2008,01,24,01,43,0.00
2008,01,24,01,44,0.00
2008,01,24,01,45,0.00
2008,01,24,01,46,0.00
2008,01,24,01,47,0.00
2008,01,24,01,48,0.00
2008,01,24,01,49,0.00
2008,01,24,01,50,0.00
2008,01,24,01,51,0.00
2008,01,24,01,52,0.00
2008,01,24,01,53,0.00
2008,01,24,01,54,0.00
2008,01,24,01,55,0.00
2008,01,24,01,56,0.00
2008,01,24,01,57,0.00
2008,01,24,01,58,0.00
2008,01,24,01,59,0.00
2008,01,24,02,00,0.00
2008,01,24,02,01,0.00
2008,01,24,02,02,0.00
2008,01,24,02,03,0.00
2008,01,24,02,04,0.00
2008,01,24,02,05,0.00
2008,01,24,02,06,0.00
2008,01,24,02,07,0.00
2008,01,24,02,08,0.00
2008,01,24,02,09,0.00
2008,01,24,02,10,0.00
2008,01,24,02,11,0.00
2008,01,24,02,12,0.00
2008,01,24,02,13,0.00
2008,01,24,02,14,0.00
2008,01,24,02,15,0.00
2008,01,24,02,16,0.00
2008,01,24,02,17,0.00
2008,01,24,02,18,0.00
2008,01,24,02,19,0.00
2008,01,24,02,20,0.00
2008,01,24,02,21,0.00
2008,01,24,02,22,0.00
2008,01,24,02,23,0.00
2008,01,24,02,24,0.00
2008,01,24,02,25,0.00
2008,01,24,02,26,0.00
2008,01,24,02,27,0.00
2008,01,24,02,28,0.00
2008,01,24,02,29,0.00
2008,01,24,02,30,0.00
2008,01,24,02,31,0.00
2008,01,24,02,32,0.00
2008,01,24,02,33,0.00
2008,01,24,02,34,0.00
2008,01,24,02,35,0.00
2008,01,24,02,36,0.00
2008,01,24,02,37,0.00
2008,01,24,02,38,0.00
2008,01,24,02,39,0.00
2008,01,24,02,40,0.00
2008,01,24,02,41,0.00
2008,01,24,02,42,0.00
2008,01,24,02,43,0.00
2008,01,24,02,44,0.00
2008,01,24,02,45,0.00
2008,01,24,02,46,0.00
2008,01,24,02,47,0.00
2008,01,24,02,48,0.00
2008,01,24,02,49,0.00
2008,01,24,02,50,0.00
2008,01,24,02,51,0.00
2008,01,24,02,52,0.00
2008,01,24,02,53,0.00
2008,01,24,02,54,0.00
2008,01,24,02,55,0.00
2008,01,24,02,56,0.00
2008,01,24,02,57,0.00
2008,01,24,02,58,0.00
2008,01,24,02,59,0.00
2008,01,24,03,00,0.00
2008,01,24,03,01,0.00
2008,01,24,03,02,0.00
2008,01,24,03,03,0.00
2008,01,24,03,04,0.00
2008,01,24,03,05,0.00
2008,01,24,03,06,0.00
2008,01,24,03,07,0.00
2008,01,24,03,08,0.00
2008,01,24,03,09,0.00
2008,01,24,03,10,0.00
2008,01,24,03,11,0.00
2008,01,24,03,12,0.00
2008,01,24,03,13,0.00
2008,01,24,03,14,0.00
2008,01,24,03,15,0.00
2008,01,24,03,16,0.00
2008,01,24,03,17,0.00
2008,01,24,03,18,0.00
2008,01,24,03,19,0.00
2008,01,24,03,20,0.00
2008,01,24,03,21,0.00
2008,01,24,03,22,0.00
2008,01,24,03,23,0.00
2008,01,24,03,24,0.00
2008,01,24,03,25,0.00
2008,01,24,03,26,0.00
2008,01,24,03,27,0.00
2008,01,24,03,28,0.00
2008,01,24,03,29,0.00
2008,01,24,03,30,0.00
2008,01,24,03,31,0.00
2008,01,24,03,32,0.00
2008,01,24,03,33,0.00
2008,01,24,03,34,0.00
2008,01,24,03,35,0.00
2008,01,24,03,36,0.00
2008,01,24,03,37,0.00
2008,01,24,03,38,0.00
2008,01,24,03,39,0.00
2008,01,24,03,40,0.00
2008,01,24,03,41,0.00
2008,01,24,03,42,0.00
2008,01,24,03,43,0.00
2008,01,24,03,44,0.00
2008,01,24,03,45,0.00
2008,01,24,03,46,0.00
2008,01,24,03,47,0.00
2008,01,24,03,48,0.00
2008,01,24,03,49,0.00
2008,01,24,03,50,0.00
2008,01,24,03,51,0.00
2008,01,24,03,52,0.00
2008,01,24,03,53,0.00
2008,01,24,03,54,0.00
2008,01,24,03,55,0.00
2008,01,24,03,56,0.00
2008,01,24,03,57,0.00
2008,01,24,03,58,0.00
2008,01,24,03,59,0.00
2008,01,24,04,00,0.00
2008,01,24,04,01,0.00
2008,01,24,04,02,0.00
2008,01,24,04,03,0.00
2008,01,24,04,04,0.00
2008,01,24,04,05,0.00
2008,01,24,04,06,0.00
2008,01,24,04,07,0.00
2008,01,24,04,08,0.00
2008,01,24,04,09,0.00
2008,01,24,04,10,0.00
2008,01,24,04,11,0.00
2008,01,24,04,12,0.00
2008,01,24,04,13,0.00
2008,01,24,04,14,0.00
2008,01,24,04,15,0.00
2008,01,24,04,16,0.00
2008,01,24,04,17,0.00
2008,01,24,04,18,0.00
2008,01,24,04,19,0.00
2008,01,24,04,20,0.00
2008,01,24,04,21,0.00
2008,01,24,04,22,0.00
2008,01,24,04,23,0.00
2008,01,24,04,24,0.00
2008,01,24,04,25,0.00
2008,01,24,04,26,0.00
2008,01,24,04,27,0.00
2008,01,24,04,28,0.00
2008,01,24,04,29,0.00
2008,01,24,04,30,0.00
2008,01,24,04,31,0.00
2008,01,24,04,32,0.00
2008,01,24,04,33,0.00
2008,01,24,04,34,0.00
2008,01,24,04,35,0.00
2008,01,24,04,36,0.00
2008,01,24,04,37,0.00
2008,01,24,04,38,0.00
2008,01,24,04,39,0.00
2008,01,24,04,40,0.00
2008,01,24,04,41,0.00
2008,01,24,04,42,0.00
2008,01,24,04,43,0.00
2008,01,24,04,44,0.00
2008,01,24,04,45,0.00
2008,01,24,04,46,0.00
2008,01,24,04,47,0.00
2008,01,24,04,48,0.00
2008,01,24,04,49,0.00
2008,01,24,04,50,0.00
2008,01,24,04,51,0.00
2008,01,24,04,52,0.00
2008,01,24,04,53,0.00
2008,01,24,04,54,0.00
2008,01,24,04,55,0.00
2008,01,24,04,56,0.00
2008,01,24,04,57,0.00
2008,01,24,04,58,0.00
2008,01,24,04,59,0.00
2008,01,24,05,00,0.00
2008,01,24,05,01,0.00
2008,01,24,05,02,0.00
2008,01,24,05,03,0.00
2008,01,24,05,04,0.00
2008,01,24,05,05,0.00
2008,01,24,05,06,0.00
2008,01,24,05,07,0.00
2008,01,24,05,08,0.00
2008,01,24,05,09,0.00
2008,01,24,05,10,0.00
2008,01,24,05,11,0.00
2008,01,24,05,12,0.00
2008,01,24,05,13,0.00
2008,01,24,05,14,0.00
2008,01,24,05,15,0.00
2008,01,24,05,16,0.00
2008,01,24,05,17,0.00
2008,01,24,05,18,0.00
2008,01,24,05,19,0.00
2008,01,24,05,20,0.00
2008,01,24,05,21,0.00
2008,01,24,05,22,0.00
2008,01,24,05,23,0.00
2008,01,24,05,24,0.00
2008,01,24,05,25,0.00
2008,01,24,05,26,0.00
2008,01,24,05,27,0.00
2008,01,24,05,28,0.00
2008,01,24,05,29,0.00
2008,01,24,05,30,0.00
2008,01,24,05,31,0.00
2008,01,24,05,32,0.00
2008,01,24,05,33,0.00
2008,01,24,05,34,0.00
2008,01,24,05,35,0.00
2008,01,24,05,36,0.00
2008,01,24,05,37,0.00
2008,01,24,05,38,0.00
2008,01,24,05,39,0.00
2008,01,24,05,40,0.00
2008,01,24,05,41,0.00
2008,01,24,05,42,0.00
2008,01,24,05,43,0.00
2008,01,24,05,44,0.00
2008,01,24,05,45,0.00
2008,01,24,05,46,0.00
2008,01,24,05,47,0.00
2008,01,24,05,48,0.00
2008,01,24,05,49,0.00
2008,01,24,05,50,0.00
2008,01,24,05,51,0.00
2008,01,24,05,52,0.00
2008,01,24,05,53,0.00
2008,01,24,05,54,0.00
2008,01,24,05,55,0.00
2008,01,24,05,56,0.00
2008,01,24,05,57,0.00
2008,01,24,05,58,0.00
2008,01,24,05,59,0.00
2008,01,24,06,00,0.00
2008,01,24,06,01,0.00
2008,01,24,06,02,0.00
2008,01,24,06,03,0.00
2008,01,24,06,04,0.00
2008,01,24,06,05,0.00
2008,01,24,06,06,0.00
2008,01,24,06,07,0.00
2008,01,24,06,08,0.00
2008,01,24,06,09,0.00
2008,01,24,06,10,0.00
2008,01,24,06,11,0.00
2008,01,24,06,12,0.00
2008,01,24,06,13,0.00
2008,01,24,06,14,0.00
2008,01,24,06,15,0.00
2008,01,24,06,16,0.00
2008,01,24,06,17,0.00
2008,01,24,06,18,0.00
2008,01,24,06,19,0.00
2008,01,24,06,20,0.00
2008,01,24,06,21,0.00
2008,01,24,06,22,0.00
2008,01,24,06,23,0.00
2008,01,24,06,24,0.00
2008,01,24,06,25,0.00
2008,01,24,06,26,0.00
2008,01,24,06,27,0.00
2008,01,24,06,28,0.00
2008,01,24,06,29,0.00
2008,01,24,06,30,0.00
2008,01,24,06,31,0.00
2008,01,24,06,32,0.00
2008,01,24,06,33,0.00
2008,01,24,06,34,0.00
2008,01,24,06,35,0.00
2008,01,24,06,36,0.00
2008,01,24,06,37,0.00
2008,01,24,06,38,0.00
2008,01,24,06,39,0.00
2008,01,24,06,40,0.00
2008,01,24,06,41,0.00
2008,01,24,06,42,0.00
2008,01,24,06,43,0.00
2008,01,24,06,44,0.00
2008,01,24,06,45,0.00
2008,01,24,06,46,0.00
2008,01,24,06,47,0.00
2008,01,24,06,48,0.00
2008,01,24,06,49,0.00
2008,01,24,06,50,0.00
2008,01,24,06,51,0.00
2008,01,24,06,52,0.00
2008,01,24,06,53,0.00
2008,01,24,06,54,0.00
2008,01,24,06,55,0.00
2008,01,24,06,56,0.00
2008,01,24,06,57,0.00
2008,01,24,06,58,0.00
2008,01,24,06,59,0.00
2008,01,24,07,00,0.00
2008,01,24,07,01,0.00
2008,01,24,07,02,0.00
2008,01,24,07,03,0.00
2008,01,24,07,04,0.00
2008,01,24,07,05,0.00
2008,01,24,07,06,0.00
2008,01,24,07,07,0.00
2008,01,24,07,08,0.00
2008,01,24,07,09,0.00
2008,01,24,07,10,0.00
2008,01,24,07,11,0.00
2008,01,24,07,12,0.00
2008,01,24,07,13,0.00
2008,01,24,07,14,0.00
2008,01,24,07,15,0.00
2008,01,24,07,16,0.00
2008,01,24,07,17,0.00
2008,01,24,07,18,0.00
2008,01,24,07,19,0.00
2008,01,24,07,20,0.00
2008,01,24,07,21,0.00
2008,01,24,07,22,0.00
2008,01,24,07,23,0.00
2008,01,24,07,24,0.00
2008,01,24,07,25,0.00
2008,01,24,07,26,0.00
2008,01,24,07,27,0.00
2008,01,24,07,28,0.00
2008,01,24,07,29,0.00
2008,01,24,07,30,0.00
2008,01,24,07,31,0.00
2008,01,24,07,32,0.00
2008,01,24,07,33,0.00
2008,01,24,07,34,0.00
2008,01,24,07,35,0.00
2008,01,24,07,36,0.00
2008,01,24,07,37,0.00
2008,01,24,07,38,0.00
2008,01,24,07,39,0.00
2008,01,24,07,40,0.00
2008,01,24,07,41,0.00
2008,01,24,07,42,0.00
2008,01,24,07,43,0.00
2008,01,24,07,44,0.00
2008,01,24,07,45,0.00
2008,01,24,07,46,0.00
2008,01,24,07,47,0.00
2008,01,24,07,48,0.00
2008,01,24,07,49,0.00
2008,01,24,07,50,0.00
2008,01,24,07,51,0.00
2008,01,24,07,52,0.00
2008,01,24,07,53,0.00
2008,01,24,07,54,0.00
2008,01,24,07,55,0.00
2008,01,24,07,56,0.00
2008,01,24,07,57,0.00
2008,01,24,07,58,0.00
2008,01,24,07,59,0.00
2008,01,24,08,00,4.50
2008,01,24,08,01,5.00
2008,01,24,08,02,5.00
2008,01,24,08,03,5.00
2008,01,24,08,04,5.00
2008,01,24,08,05,5.00
2008,01,24,08,06,7.00
2008,01,24,08,07,7.00
2008,01,24,08,08,7.00
2008,01,24,08,09,8.80
2008,01,24,08,10,9.00
2008,01,24,08,11,9.00
2008,01,24,08,12,11.00
2008,01,24,08,13,11.00
2008,01,24,08,14,12.00
2008,01,24,08,15,12.00
2008,01,24,08,16,12.00
2008,01,24,08,17,13.80
2008,01,24,08,18,14.00
2008,01,24,08,19,15.80
2008,01,24,08,20,16.00
2008,01,24,08,21,18.00
2008,01,24,08,22,18.00
2008,01,24,08,23,18.00
2008,01,24,08,24,18.90
2008,01,24,08,25,20.80
2008,01,24,08,26,21.00
2008,01,24,08,27,23.00
2008,01,24,08,28,23.00
2008,01,24,08,29,25.00
2008,01,24,08,30,25.00
2008,01,24,08,31,25.90
2008,01,24,08,32,26.00
2008,01,24,08,33,28.00
2008,01,24,08,34,30.00
2008,01,24,08,35,30.00
2008,01,24,08,36,31.80
2008,01,24,08,37,32.00
2008,01,24,08,38,33.00
2008,01,24,08,39,33.00
2008,01,24,08,40,34.80
2008,01,24,08,41,35.00
2008,01,24,08,42,37.00
2008,01,24,08,43,37.00
2008,01,24,08,44,39.00
2008,01,24,08,45,39.00
2008,01,24,08,46,39.00
2008,01,24,08,47,39.00
2008,01,24,08,48,39.90
2008,01,24,08,49,42.00
2008,01,24,08,50,44.00
2008,01,24,08,51,45.80
2008,01,24,08,52,46.00
2008,01,24,08,53,44.00
2008,01,24,08,54,42.00
2008,01,24,08,55,42.00
2008,01,24,08,56,42.00
2008,01,24,08,57,43.80
2008,01,24,08,58,45.80
2008,01,24,08,59,46.00
2008,01,24,09,00,47.00
2008,01,24,09,01,49.00
2008,01,24,09,02,49.00
2008,01,24,09,03,49.00
2008,01,24,09,04,49.00
2008,01,24,09,05,52.60
2008,01,24,09,06,56.00
2008,01,24,09,07,60.00
2008,01,24,09,08,61.80
2008,01,24,09,09,62.00
2008,01,24,09,10,62.00
2008,01,24,09,11,58.00
2008,01,24,09,12,56.20
2008,01,24,09,13,54.20
2008,01,24,09,14,54.00
2008,01,24,09,15,56.00
2008,01,24,09,16,57.80
2008,01,24,09,17,60.00
2008,01,24,09,18,60.00
2008,01,24,09,19,56.40
2008,01,24,09,20,54.00
2008,01,24,09,21,54.00
2008,01,24,09,22,54.00
2008,01,24,09,23,58.00
2008,01,24,09,24,62.00
2008,01,24,09,25,62.00
2008,01,24,09,26,60.00
2008,01,24,09,27,56.00
2008,01,24,09,28,56.00
2008,01,24,09,29,58.00
2008,01,24,09,30,59.80
2008,01,24,09,31,62.00
2008,01,24,09,32,64.70
2008,01,24,09,33,73.10
2008,01,24,09,34,77.00
2008,01,24,09,35,77.00
2008,01,24,09,36,77.00
2008,01,24,09,37,77.00
2008,01,24,09,38,77.00
2008,01,24,09,39,79.00
2008,01,24,09,40,82.60
2008,01,24,09,41,88.00
2008,01,24,09,42,93.00
2008,01,24,09,43,93.00
2008,01,24,09,44,104.00
2008,01,24,09,45,109.00
2008,01,24,09,46,117.10
2008,01,24,09,47,125.00
2008,01,24,09,48,134.00
2008,01,24,09,49,139.00
2008,01,24,09,50,144.00
2008,01,24,09,51,149.00
2008,01,24,09,52,154.40
2008,01,24,09,53,160.00
2008,01,24,09,54,160.00
2008,01,24,09,55,174.40
2008,01,24,09,56,181.00
2008,01,24,09,57,188.00
2008,01,24,09,58,197.90
2008,01,24,09,59,209.00
2008,01,24,10,00,214.00
2008,01,24,10,01,220.30
2008,01,24,10,02,232.00
2008,01,24,10,03,241.00
2008,01,24,10,04,251.80
2008,01,24,10,05,251.00
2008,01,24,10,06,244.00
2008,01,24,10,07,244.00
2008,01,24,10,08,236.00
2008,01,24,10,09,221.00
2008,01,24,10,10,220.00
2008,01,24,10,11,206.00
2008,01,24,10,12,196.10
2008,01,24,10,13,190.00
2008,01,24,10,14,192.00
2008,01,24,10,15,183.00
2008,01,24,10,16,178.50
2008,01,24,10,17,172.00
2008,01,24,10,18,169.00
2008,01,24,10,19,167.20
2008,01,24,10,20,171.00
2008,01,24,10,21,171.00
2008,01,24,10,22,172.00
2008,01,24,10,23,178.00
2008,01,24,10,24,188.00
2008,01,24,10,25,192.50
2008,01,24,10,26,195.00
2008,01,24,10,27,201.30
2008,01,24,10,28,214.60
2008,01,24,10,29,230.00
2008,01,24,10,30,204.80
2008,01,24,10,31,237.10
2008,01,24,10,32,257.00
2008,01,24,10,33,258.00
2008,01,24,10,34,265.00
2008,01,24,10,35,270.40
2008,01,24,10,36,271.00
2008,01,24,10,37,277.30
2008,01,24,10,38,280.70
2008,01,24,10,39,278.30
2008,01,24,10,40,271.00
2008,01,24,10,41,260.00
2008,01,24,10,42,260.00
2008,01,24,10,43,274.00
2008,01,24,10,44,278.00
2008,01,24,10,45,276.00
2008,01,24,10,46,276.00
2008,01,24,10,47,290.40
2008,01,24,10,48,292.00
2008,01,24,10,49,281.00
2008,01,24,10,50,279.00
2008,01,24,10,51,295.20
2008,01,24,10,52,294.30
2008,01,24,10,53,285.00
2008,01,24,10,54,274.00
2008,01,24,10,55,271.00
2008,01,24,10,56,271.00
2008,01,24,10,57,276.00
2008,01,24,10,58,276.00
2008,01,24,10,59,278.00
2008,01,24,11,00,290.60
2008,01,24,11,01,285.00
2008,01,24,11,02,271.00
2008,01,24,11,03,269.00
2008,01,24,11,04,289.70
2008,01,24,11,05,294.00
2008,01,24,11,06,288.00
2008,01,24,11,07,279.90
2008,01,24,11,08,285.00
2008,01,24,11,09,294.00
2008,01,24,11,10,297.00
2008,01,24,11,11,295.00
2008,01,24,11,12,297.00
2008,01,24,11,13,304.00
2008,01,24,11,14,304.00
2008,01,24,11,15,295.00
2008,01,24,11,16,281.00
2008,01,24,11,17,186.00
2008,01,24,11,18,278.00
2008,01,24,11,19,280.70
2008,01,24,11,20,281.00
2008,01,24,11,21,285.00
2008,01,24,11,22,285.00
2008,01,24,11,23,285.00
2008,01,24,11,24,283.00
2008,01,24,11,25,265.00
2008,01,24,11,26,265.00
2008,01,24,11,27,273.10
2008,01,24,11,28,281.00
2008,01,24,11,29,287.00
2008,01,24,11,30,293.30
2008,01,24,11,31,283.00
2008,01,24,11,32,283.00
2008,01,24,11,33,288.00
2008,01,24,11,34,301.00
2008,01,24,11,35,299.20
2008,01,24,11,36,300.80
2008,01,24,11,37,304.00
2008,01,24,11,38,301.00
2008,01,24,11,39,297.40
2008,01,24,11,40,306.00
2008,01,24,11,41,294.00
2008,01,24,11,42,290.40
2008,01,24,11,43,295.00
2008,01,24,11,44,309.00
2008,01,24,11,45,314.40
2008,01,24,11,46,336.00
2008,01,24,11,47,330.00
2008,01,24,11,48,338.00
2008,01,24,11,49,320.00
2008,01,24,11,50,313.00
2008,01,24,11,51,323.00
2008,01,24,11,52,320.00
2008,01,24,11,53,309.20
2008,01,24,11,54,311.00
2008,01,24,11,55,309.00
2008,01,24,11,56,309.00
2008,01,24,11,57,309.00
2008,01,24,11,58,306.00
2008,01,24,11,59,314.10
2008,01,24,12,00,309.00
2008,01,24,12,01,312.60
2008,01,24,12,02,308.50
2008,01,24,12,03,301.00
2008,01,24,12,04,304.00
2008,01,24,12,05,309.00
2008,01,24,12,06,318.00
2008,01,24,12,07,330.00
2008,01,24,12,08,331.80
2008,01,24,12,09,327.00
2008,01,24,12,10,330.00
2008,01,24,12,11,323.00
2008,01,24,12,12,301.00
2008,01,24,12,13,301.00
2008,01,24,12,14,306.00
2008,01,24,12,15,290.00
2008,01,24,12,16,276.00
2008,01,24,12,17,274.00
2008,01,24,12,18,264.00
2008,01,24,12,19,258.60
2008,01,24,12,20,260.00
2008,01,24,12,21,265.00
2008,01,24,12,22,273.10
2008,01,24,12,23,274.00
2008,01,24,12,24,278.00
2008,01,24,12,25,269.90
2008,01,24,12,26,279.00
2008,01,24,12,27,276.00
2008,01,24,12,28,279.00
2008,01,24,12,29,278.00
2008,01,24,12,30,284.30
2008,01,24,12,31,309.00
2008,01,24,12,32,329.00
2008,01,24,12,33,329.00
2008,01,24,12,34,343.00
2008,01,24,12,35,352.00
2008,01,24,12,36,356.50
2008,01,24,12,37,350.00
2008,01,24,12,38,316.00
2008,01,24,12,39,295.00
2008,01,24,12,40,283.00
2008,01,24,12,41,272.00
2008,01,24,12,42,272.00
2008,01,24,12,43,304.40
2008,01,24,12,44,313.00
2008,01,24,12,45,315.70
2008,01,24,12,46,325.00
2008,01,24,12,47,367.00
2008,01,24,12,48,339.00
2008,01,24,12,49,357.90
2008,01,24,12,50,353.00
2008,01,24,12,51,343.00
2008,01,24,12,52,351.10
2008,01,24,12,53,348.00
2008,01,24,12,54,369.00
2008,01,24,12,55,378.90
2008,01,24,12,56,401.00
2008,01,24,12,57,397.60
2008,01,24,12,58,397.00
2008,01,24,12,59,410.00
2008,01,24,13,00,410.00
2008,01,24,13,01,241.70
2008,01,24,13,02,223.00
2008,01,24,13,03,190.00
2008,01,24,13,04,176.00
2008,01,24,13,05,169.00
2008,01,24,13,06,167.00
2008,01,24,13,07,163.40
2008,01,24,13,08,162.00
2008,01,24,13,09,162.00
2008,01,24,13,10,167.00
2008,01,24,13,11,181.00
2008,01,24,13,12,244.00
2008,01,24,13,13,332.00
2008,01,24,13,14,378.00
2008,01,24,13,15,382.50
2008,01,24,13,16,392.00
2008,01,24,13,17,384.40
2008,01,24,13,18,380.00
2008,01,24,13,19,418.00
2008,01,24,13,20,432.00
2008,01,24,13,21,424.00
2008,01,24,13,22,408.70
2008,01,24,13,23,454.00
2008,01,24,13,24,473.00
2008,01,24,13,25,473.00
2008,01,24,13,26,461.00
2008,01,24,13,27,446.00
2008,01,24,13,28,435.80
2008,01,24,13,29,443.00
2008,01,24,13,30,420.00
2008,01,24,13,31,383.00
2008,01,24,13,32,299.00
2008,01,24,13,33,316.10
2008,01,24,13,34,380.00
2008,01,24,13,35,301.80
2008,01,24,13,36,285.00
2008,01,24,13,37,244.00
2008,01,24,13,38,332.00
2008,01,24,13,39,329.00
2008,01,24,13,40,283.00
2008,01,24,13,41,281.00
2008,01,24,13,42,246.80
2008,01,24,13,43,202.00
2008,01,24,13,44,163.00
2008,01,24,13,45,146.00
2008,01,24,13,46,140.10
2008,01,24,13,47,137.00
2008,01,24,13,48,135.00
2008,01,24,13,49,134.10
2008,01,24,13,50,132.00
2008,01,24,13,51,128.00
2008,01,24,13,52,127.00
2008,01,24,13,53,127.00
2008,01,24,13,54,120.00
2008,01,24,13,55,118.20
2008,01,24,13,56,116.00
2008,01,24,13,57,114.00
2008,01,24,13,58,114.00
2008,01,24,13,59,113.00
2008,01,24,14,00,111.00
2008,01,24,14,01,111.00
2008,01,24,14,02,109.20
2008,01,24,14,03,109.00
2008,01,24,14,04,107.00
2008,01,24,14,05,107.00
2008,01,24,14,06,107.00
2008,01,24,14,07,105.00
2008,01,24,14,08,107.00
2008,01,24,14,09,107.00
2008,01,24,14,10,108.70
2008,01,24,14,11,111.00
2008,01,24,14,12,114.00
2008,01,24,14,13,119.10
2008,01,24,14,14,123.00
2008,01,24,14,15,134.00
2008,01,24,14,16,144.00
2008,01,24,14,17,152.10
2008,01,24,14,18,169.00
2008,01,24,14,19,179.00
2008,01,24,14,20,182.40
2008,01,24,14,21,199.00
2008,01,24,14,22,230.00
2008,01,24,14,23,257.20
2008,01,24,14,24,264.00
2008,01,24,14,25,271.00
2008,01,24,14,26,273.50
2008,01,24,14,27,295.00
2008,01,24,14,28,309.00
2008,01,24,14,29,314.10
2008,01,24,14,30,333.90
2008,01,24,14,31,350.00
2008,01,24,14,32,353.00
2008,01,24,14,33,362.00
2008,01,24,14,34,373.00
2008,01,24,14,35,373.90
2008,01,24,14,36,376.00
2008,01,24,14,37,373.00
2008,01,24,14,38,369.00
2008,01,24,14,39,366.50
2008,01,24,14,40,360.00
2008,01,24,14,41,357.50
2008,01,24,14,42,345.00
2008,01,24,14,43,334.00
2008,01,24,14,44,320.00
2008,01,24,14,45,306.00
2008,01,24,14,46,294.00
2008,01,24,14,47,288.60
2008,01,24,14,48,279.00
2008,01,24,14,49,273.00
2008,01,24,14,50,272.00
2008,01,24,14,51,278.00
2008,01,24,14,52,271.00
2008,01,24,14,53,261.60
2008,01,24,14,54,257.00
2008,01,24,14,55,243.00
2008,01,24,14,56,225.00
2008,01,24,14,57,215.60
2008,01,24,14,58,207.00
2008,01,24,14,59,199.00
2008,01,24,15,00,195.60
2008,01,24,15,01,190.00
2008,01,24,15,02,179.80
2008,01,24,15,03,178.00
2008,01,24,15,04,176.00
2008,01,24,15,05,171.80
2008,01,24,15,06,172.00
2008,01,24,15,07,161.80
2008,01,24,15,08,143.80
2008,01,24,15,09,130.00
2008,01,24,15,10,120.00
2008,01,24,15,11,114.00
2008,01,24,15,12,111.30
2008,01,24,15,13,111.00
2008,01,24,15,14,114.00
2008,01,24,15,15,114.00
2008,01,24,15,16,119.40
2008,01,24,15,17,120.00
2008,01,24,15,18,120.00
2008,01,24,15,19,121.00
2008,01,24,15,20,128.00
2008,01,24,15,21,137.00
2008,01,24,15,22,144.60
2008,01,24,15,23,151.00
2008,01,24,15,24,163.00
2008,01,24,15,25,179.00
2008,01,24,15,26,192.00
2008,01,24,15,27,197.00
2008,01,24,15,28,197.00
2008,01,24,15,29,193.40
2008,01,24,15,30,195.00
2008,01,24,15,31,192.00
2008,01,24,15,32,190.30
2008,01,24,15,33,188.00
2008,01,24,15,34,188.00
2008,01,24,15,35,183.00
2008,01,24,15,36,175.40
2008,01,24,15,37,153.00
2008,01,24,15,38,137.60
2008,01,24,15,39,127.00
2008,01,24,15,40,132.00
2008,01,24,15,41,132.00
2008,01,24,15,42,132.00
2008,01,24,15,43,132.00
2008,01,24,15,44,122.70
2008,01,24,15,45,128.60
2008,01,24,15,46,140.80
2008,01,24,15,47,146.00
2008,01,24,15,48,147.70
2008,01,24,15,49,146.20
2008,01,24,15,50,142.00
2008,01,24,15,51,141.10
2008,01,24,15,52,137.40
2008,01,24,15,53,135.00
2008,01,24,15,54,132.00
2008,01,24,15,55,125.00
2008,01,24,15,56,118.70
2008,01,24,15,57,113.00
2008,01,24,15,58,107.00
2008,01,24,15,59,102.00
2008,01,24,16,00,102.00
2008,01,24,16,01,102.00
2008,01,24,16,02,104.00
2008,01,24,16,03,100.00
2008,01,24,16,04,98.00
2008,01,24,16,05,93.00
2008,01,24,16,06,88.00
2008,01,24,16,07,84.60
2008,01,24,16,08,81.00
2008,01,24,16,09,79.00
2008,01,24,16,10,77.00
2008,01,24,16,11,82.10
2008,01,24,16,12,84.00
2008,01,24,16,13,81.00
2008,01,24,16,14,77.60
2008,01,24,16,15,72.00
2008,01,24,16,16,69.00
2008,01,24,16,17,65.60
2008,01,24,16,18,60.50
2008,01,24,16,19,56.00
2008,01,24,16,20,53.00
2008,01,24,16,21,51.30
2008,01,24,16,22,47.00
2008,01,24,16,23,46.20
2008,01,24,16,24,44.20
2008,01,24,16,25,44.00
2008,01,24,16,26,42.30
2008,01,24,16,27,42.00
2008,01,24,16,28,42.00
2008,01,24,16,29,42.00
2008,01,24,16,30,40.20
2008,01,24,16,31,40.00
2008,01,24,16,32,39.00
2008,01,24,16,33,39.00
2008,01,24,16,34,39.00
2008,01,24,16,35,37.00
2008,01,24,16,36,35.30
2008,01,24,16,37,35.00
2008,01,24,16,38,33.00
2008,01,24,16,39,33.00
2008,01,24,16,40,32.00
2008,01,24,16,41,30.00
2008,01,24,16,42,30.00
2008,01,24,16,43,28.00
2008,01,24,16,44,26.00
2008,01,24,16,45,25.00
2008,01,24,16,46,25.00
2008,01,24,16,47,23.20
2008,01,24,16,48,23.00
2008,01,24,16,49,23.00
2008,01,24,16,50,21.00
2008,01,24,16,51,21.00
2008,01,24,16,52,19.20
2008,01,24,16,53,18.00
2008,01,24,16,54,16.00
2008,01,24,16,55,14.00
2008,01,24,16,56,12.00
2008,01,24,16,57,12.00
2008,01,24,16,58,11.10
2008,01,24,16,59,9.00
2008,01,24,17,00,9.00
2008,01,24,17,01,7.00
2008,01,24,17,02,7.00
2008,01,24,17,03,7.00
2008,01,24,17,04,7.00
2008,01,24,17,05,5.00
2008,01,24,17,06,5.00
2008,01,24,17,07,0.00
2008,01,24,17,08,0.00
2008,01,24,17,09,0.00
2008,01,24,17,10,0.00
2008,01,24,17,11,0.00
2008,01,24,17,12,0.00
2008,01,24,17,13,0.00
2008,01,24,17,14,0.00
2008,01,24,17,15,0.00
2008,01,24,17,16,0.00
2008,01,24,17,17,0.00
2008,01,24,17,18,0.00
2008,01,24,17,19,0.00
2008,01,24,17,20,0.00
2008,01,24,17,21,0.00
2008,01,24,17,22,0.00
2008,01,24,17,23,0.00
2008,01,24,17,24,0.00
2008,01,24,17,25,0.00
2008,01,24,17,26,0.00
2008,01,24,17,27,0.00
2008,01,24,17,28,0.00
2008,01,24,17,29,0.00
2008,01,24,17,30,0.00
2008,01,24,17,31,0.00
2008,01,24,17,32,0.00
2008,01,24,17,33,0.00
2008,01,24,17,34,0.00
2008,01,24,17,35,0.00
2008,01,24,17,36,0.00
2008,01,24,17,37,0.00
2008,01,24,17,38,0.00
2008,01,24,17,39,0.00
2008,01,24,17,40,0.00
2008,01,24,17,41,0.00
2008,01,24,17,42,0.00
2008,01,24,17,43,0.00
2008,01,24,17,44,0.00
2008,01,24,17,45,0.00
2008,01,24,17,46,0.00
2008,01,24,17,47,0.00
2008,01,24,17,48,0.00
2008,01,24,17,49,0.00
2008,01,24,17,50,0.00
2008,01,24,17,51,0.00
2008,01,24,17,52,0.00
2008,01,24,17,53,0.00
2008,01,24,17,54,0.00
2008,01,24,17,55,0.00
2008,01,24,17,56,0.00
2008,01,24,17,57,0.00
2008,01,24,17,58,0.00
2008,01,24,17,59,0.00
2008,01,24,18,00,0.00
2008,01,24,18,01,0.00
2008,01,24,18,02,0.00
2008,01,24,18,03,0.00
2008,01,24,18,04,0.00
2008,01,24,18,05,0.00
2008,01,24,18,06,0.00
2008,01,24,18,07,0.00
2008,01,24,18,08,0.00
2008,01,24,18,09,0.00
2008,01,24,18,10,0.00
2008,01,24,18,11,0.00
2008,01,24,18,12,0.00
2008,01,24,18,13,0.00
2008,01,24,18,14,0.00